GEFSMW_con_probscp_252.txt.gz
Probability
3 3 2 3 6 7 6 6 4 2 1 2 2 1 0 0 1 1 1 0 0 0 0 0 0 0 0 0 0 0 0 0 0 0 0 0 0 0 0 0 0 0 0
3 3 3 4 6 7 6 5 3 1 1 1 2 1 0 1 1 1 0 0 0 0 0 0 0 0 0 0 0 0 0 0 0 0 0 0 0 0 0 0 0 0 0
3 3 5 7 8 7 6 5 2 1 1 2 2 2 2 2 1 0 0 0 0 0 0 0 0 0 0 0 0 0 0 0 0 0 0 0 0 0 0 0 0 0 0
3 4 7 10 10 8 7 5 3 2 2 2 3 3 2 2 1 0 0 0 0 0 0 0 0 0 0 0 0 0 0 0 1 1 0 0 0 0 0 0 0 0 0
4 5 9 12 13 11 8 6 5 3 2 2 2 2 2 1 0 0 0 0 0 0 0 0 0 0 0 0 0 0 0 0 1 1 0 0 0 0 0 0 0 0 0
6 7 10 14 14 11 9 7 6 5 3 1 1 2 2 1 0 0 0 0 0 1 1 1 0 0 0 0 0 1 1 1 1 1 0 0 0 0 0 0 0 0 0
7 8 11 14 14 11 9 7 6 5 3 2 2 3 2 2 1 0 0 0 0 1 2 1 0 0 0 1 1 2 2 2 2 1 0 0 0 0 0 0 0 0 0
7 8 11 14 14 12 9 7 5 5 4 4 4 4 3 3 2 1 1 0 0 0 1 1 0 0 0 1 2 3 3 3 2 1 0 0 0 0 1 0 0 0 0
9 10 13 14 14 11 8 6 4 5 5 5 5 4 4 5 4 2 1 1 0 0 0 0 0 0 1 2 3 3 2 2 1 0 0 0 0 0 0 0 0 0 1
10 12 14 14 13 10 7 5 5 6 6 6 5 4 5 6 6 4 2 2 1 1 0 0 0 1 2 2 2 1 1 1 0 0 1 1 1 0 0 1 1 1 2
11 12 14 13 12 9 6 5 5 7 7 6 5 4 4 6 7 6 5 4 3 2 2 1 1 3 3 2 1 0 0 0 1 1 2 2 2 1 1 2 3 3 3
14 14 13 12 10 9 7 5 5 6 7 7 6 4 5 7 9 9 8 7 6 5 4 3 3 4 3 1 0 0 1 1 2 3 3 3 2 2 2 4 5 5 4
18 16 12 10 10 9 9 7 5 5 7 8 8 7 7 8 9 10 10 10 9 8 7 5 5 5 2 0 0 1 2 3 3 3 3 3 2 3 4 5 6 5 4
18 15 12 10 10 12 12 8 6 7 8 9 10 12 11 9 9 9 10 9 9 8 8 7 7 6 3 1 1 2 3 4 4 4 4 4 3 5 6 6 6 5 4
15 13 11 10 10 13 14 11 8 9 11 12 14 16 15 12 9 9 8 7 7 8 8 9 9 7 5 3 3 4 5 6 6 6 7 7 5 5 5 4 4 4 4
14 11 8 8 8 12 15 14 11 11 13 15 17 18 16 13 13 12 10 8 8 9 10 10 9 7 6 4 3 4 6 9 10 10 10 10 8 5 3 2 2 2 3
12 9 6 5 7 10 14 15 13 14 16 18 19 18 15 14 15 16 14 12 11 11 11 10 9 8 6 4 2 3 7 11 13 12 12 12 9 6 4 3 2 1 2
9 7 4 5 9 13 16 16 15 17 19 20 20 20 18 16 17 18 17 15 14 13 12 10 9 9 8 6 4 5 9 13 13 12 12 11 8 6 5 4 3 2 2
10 7 5 8 14 19 21 22 21 21 20 20 22 23 22 20 19 19 18 16 14 13 12 10 10 10 10 8 4 6 12 15 15 13 11 9 6 4 4 4 3 1 1
14 13 13 16 21 24 26 28 26 22 19 19 21 23 23 22 20 19 17 15 14 14 12 10 11 12 12 9 4 5 13 17 17 15 12 8 5 2 2 2 2 1 0
19 19 20 22 24 27 28 28 24 18 16 18 20 22 24 23 20 17 16 15 13 13 13 12 12 11 11 9 5 5 10 16 17 15 13 9 4 1 0 1 2 1 1
19 20 22 22 23 24 25 24 19 14 14 16 18 20 23 23 20 16 15 15 13 13 14 14 13 11 11 10 8 5 6 12 15 14 12 9 4 1 0 0 1 1 0
21 21 21 21 20 20 21 21 18 17 16 16 17 19 21 21 19 15 15 15 15 14 14 15 15 13 13 12 10 6 4 6 10 12 10 6 2 0 0 0 0 0 0
24 23 22 21 19 19 21 22 23 23 21 19 19 18 18 18 17 15 14 15 17 18 17 16 16 15 14 13 11 9 7 6 8 9 7 3 1 0 0 0 0 0 0
22 21 21 21 21 21 23 25 26 26 24 22 20 17 16 17 17 16 15 16 17 17 16 15 14 12 11 11 10 10 9 8 7 7 5 3 2 1 0 0 0 0 0
18 16 18 22 24 23 23 26 27 26 24 22 19 16 16 18 19 17 16 16 16 14 12 12 11 9 7 7 7 8 8 7 6 5 5 4 4 2 1 0 0 0 0

GEFSMW_con_probscp_258.txt.gz
Probability
2 3 4 5 9 12 12 11 11 11 12 11 10 8 5 4 2 1 0 0 0 0 1 0 0 1 1 1 1 3 2 2 2 2 2 2 2 2 2 2 2 1 1
2 5 6 6 9 12 12 11 11 11 11 12 11 8 6 4 2 1 0 0 1 1 2 1 0 0 0 1 2 3 3 3 4 5 5 4 3 3 4 4 5 4 4
4 7 9 9 10 11 11 11 12 11 10 11 10 9 7 5 2 0 0 1 2 3 3 2 1 0 0 1 2 4 5 6 7 8 9 8 6 6 6 5 6 7 7
6 8 10 10 10 10 10 11 12 11 10 11 11 10 8 6 2 0 0 1 3 3 3 3 1 1 1 1 2 4 7 9 9 9 11 10 9 9 7 5 5 6 6
7 8 9 9 9 11 11 11 12 12 11 12 13 12 9 6 2 1 1 3 4 3 3 3 3 2 2 2 4 6 8 10 9 9 10 10 9 9 8 6 4 4 3
6 8 9 9 11 13 13 12 13 12 12 12 12 11 8 6 4 3 4 5 5 3 3 4 4 3 4 5 6 7 8 8 9 10 9 8 8 8 8 6 4 2 1
7 9 10 13 14 16 16 15 14 13 12 11 10 9 7 6 6 6 6 6 4 2 3 4 4 5 6 7 8 7 7 7 9 10 9 7 6 7 8 7 4 2 1
10 12 14 15 15 15 16 16 15 13 12 12 11 10 9 7 8 9 9 7 4 2 3 5 6 6 6 7 8 7 6 7 8 9 9 7 5 5 8 9 8 5 4
14 15 17 17 16 14 14 14 14 14 14 14 13 13 12 11 11 12 13 9 6 4 4 5 6 6 6 7 8 8 7 8 8 9 9 8 6 6 9 12 14 13 10
18 18 18 19 17 14 13 12 14 16 17 16 16 16 17 17 14 14 15 12 8 6 5 5 5 5 6 7 7 8 8 9 9 9 10 10 10 10 12 15 19 19 16
18 17 17 17 16 13 12 14 16 18 18 18 19 20 21 21 18 15 15 13 11 10 8 7 6 7 8 7 6 6 8 10 10 10 10 11 12 12 14 16 19 19 17
17 16 15 16 15 12 12 15 17 18 17 17 20 22 24 23 22 20 18 16 15 12 11 10 10 11 11 9 6 6 7 9 10 10 9 10 11 13 14 16 16 15 14
20 18 18 19 19 16 14 15 17 18 17 17 19 22 24 25 25 25 22 19 16 14 12 12 13 13 13 11 9 7 7 8 10 10 10 10 12 14 15 15 14 13 13
21 21 23 26 27 26 22 20 20 21 22 23 24 25 26 27 26 26 24 21 18 16 16 17 16 14 14 12 10 8 8 9 11 11 12 13 15 16 17 16 15 14 14
22 23 27 30 33 34 33 28 27 28 29 30 30 29 29 31 30 27 25 23 21 20 22 22 20 16 14 11 9 8 10 12 15 16 18 18 19 18 17 14 12 12 14
23 25 29 32 35 38 39 37 36 36 35 36 34 32 31 32 32 30 28 27 26 25 26 27 24 20 14 8 6 7 11 16 21 23 24 23 22 20 16 10 6 7 10
26 28 30 33 36 38 40 42 44 43 41 40 38 35 32 32 33 34 33 33 33 33 32 31 30 25 15 7 3 4 10 18 24 25 25 25 24 23 19 13 9 8 8
32 33 33 35 38 38 39 44 47 47 45 44 42 38 36 35 37 38 37 37 38 39 38 36 34 29 18 10 4 3 10 18 23 24 25 25 24 23 21 18 17 15 13
34 36 37 40 44 43 44 48 49 47 46 45 42 38 37 39 40 40 39 39 40 40 39 37 35 29 21 13 6 5 13 20 22 22 23 22 21 18 17 19 19 18 17
35 37 41 46 51 51 51 53 53 52 50 46 41 38 39 40 41 42 41 39 39 38 36 34 31 28 23 16 8 7 15 21 22 21 20 19 16 13 12 15 16 16 16
38 38 43 50 54 55 54 55 57 57 55 50 44 41 40 41 42 43 43 41 39 37 35 32 30 29 26 19 11 8 13 20 22 21 19 17 13 9 8 10 13 13 12
41 41 46 53 56 54 52 55 57 57 54 51 47 42 41 42 43 42 42 40 37 34 32 30 29 31 29 23 15 8 8 14 20 22 20 16 11 6 4 5 7 8 7
46 45 48 54 57 54 51 53 54 53 51 51 48 42 39 40 41 39 36 33 31 29 27 28 29 30 30 25 18 11 6 7 13 18 17 12 8 6 4 3 3 4 5
50 47 46 51 55 54 51 50 52 52 52 51 48 41 35 34 35 34 29 25 24 24 25 27 28 29 29 25 19 14 11 7 9 13 13 10 7 7 7 6 5 6 8
50 47 44 46 51 53 51 49 50 53 54 52 47 40 33 28 27 26 22 18 19 20 21 22 23 25 23 19 14 13 12 9 9 11 13 12 11 11 12 11 10 11 11
49 47 44 43 48 52 51 47 48 52 53 50 45 38 32 27 23 20 16 13 14 14 14 15 17 19 17 13 10 9 9 8 8 12 14 15 14 14 14 14 13 13 13

GEFSMW_con_probscp_264.txt.gz
Probability
12 15 14 10 10 15 19 21 20 19 21 23 24 21 16 12 9 9 10 11 11 8 5 2 0 0 0 0 0 0 1 1 2 3 4 4 4 4 5 6 7 9 9
15 18 19 15 13 16 18 20 20 19 20 23 23 20 16 11 8 8 12 13 12 9 5 2 1 1 1 2 2 3 3 2 2 3 4 5 5 5 4 6 8 9 9
19 20 21 19 18 19 20 21 22 21 21 21 21 19 16 11 8 11 16 17 13 9 6 3 3 3 4 5 6 7 7 6 4 4 6 7 7 7 6 7 8 10 10
21 21 22 23 24 23 24 26 27 26 23 22 21 19 16 11 11 16 21 21 15 10 7 6 5 5 5 6 8 9 9 7 6 6 7 9 10 12 10 9 7 8 9
22 22 25 29 28 24 26 33 35 31 27 25 23 21 17 14 14 19 24 24 18 12 10 9 8 7 6 6 7 9 9 8 7 8 9 10 13 14 13 9 7 7 8
21 24 30 34 29 24 26 35 42 40 33 28 25 24 23 21 19 21 23 22 20 17 15 12 9 8 7 6 7 8 8 9 9 9 11 12 13 13 12 9 7 7 8
21 25 32 35 30 26 28 38 48 47 39 31 28 28 27 25 24 24 24 22 20 19 18 14 10 8 7 6 7 7 9 9 10 11 13 15 15 14 13 11 10 9 9
21 25 31 33 31 29 32 42 52 52 43 35 33 31 28 25 25 26 25 23 21 20 18 15 11 8 7 6 7 8 9 10 10 12 14 16 17 17 16 15 14 12 11
21 23 27 29 28 30 36 45 54 55 47 40 36 35 31 27 25 24 24 24 23 22 20 16 12 10 8 8 9 9 10 11 12 14 15 16 16 16 17 18 17 15 13
22 21 22 24 25 29 36 42 50 54 48 41 36 34 34 31 26 23 23 26 26 25 24 19 15 14 14 13 11 11 11 13 14 15 15 15 15 15 17 18 17 15 14
24 22 20 22 25 29 33 38 44 47 45 39 32 30 33 33 30 28 27 28 30 31 30 25 22 22 22 19 15 15 15 15 16 16 15 16 17 18 20 20 17 15 14
28 26 25 27 30 32 35 39 41 42 39 36 30 28 31 33 33 33 33 32 33 35 35 33 30 29 27 22 19 20 20 18 17 16 18 20 22 24 26 24 20 17 18
29 31 33 36 39 41 42 43 43 40 38 34 30 30 32 34 35 36 37 37 36 37 38 38 36 35 31 26 24 23 22 21 19 19 22 26 28 29 29 27 24 23 22
31 36 43 47 49 50 50 49 46 42 39 37 34 36 39 40 39 41 42 40 38 38 39 40 40 39 36 32 30 29 26 25 24 25 27 30 30 29 29 27 26 25 25
33 40 50 55 56 56 54 52 49 46 44 42 41 42 46 48 47 47 46 44 41 40 42 43 42 41 38 34 33 33 31 30 31 32 32 32 29 26 25 24 23 22 23
36 43 53 59 59 57 54 52 50 49 49 48 45 45 50 53 52 49 48 47 45 44 45 44 43 42 37 28 23 24 28 32 34 35 34 30 26 22 21 19 18 18 17
37 44 53 58 59 56 52 50 50 51 52 50 47 48 52 55 52 47 48 50 50 49 48 46 44 42 35 23 13 13 20 28 33 34 32 29 25 23 21 19 17 16 14
38 43 50 54 56 55 52 50 50 52 53 52 51 52 56 57 55 52 52 55 55 53 50 47 43 41 34 22 12 10 16 25 31 33 32 30 27 25 22 19 17 16 16
41 44 47 49 52 53 51 51 51 52 53 53 54 55 57 58 59 59 59 57 55 53 50 46 42 39 34 24 14 11 18 26 29 31 32 30 26 21 18 17 17 16 16
43 45 46 49 52 53 51 51 52 53 54 54 56 57 57 57 58 59 58 55 52 49 47 44 40 38 34 26 15 12 20 27 29 29 28 26 20 15 14 15 16 16 15
42 46 51 55 56 54 52 52 53 54 54 56 58 57 55 53 53 54 54 51 48 46 42 38 35 35 32 25 16 13 18 25 28 28 26 22 15 11 10 12 14 15 14
48 52 59 61 58 55 53 55 57 57 56 58 60 58 55 51 49 49 49 47 45 42 37 32 30 32 31 25 18 13 12 18 23 25 23 18 10 6 5 6 9 11 11
57 60 62 62 58 55 55 56 59 60 60 60 61 60 58 52 48 47 45 44 41 37 33 31 30 31 31 27 20 13 8 10 15 18 15 10 4 2 2 3 5 8 9
61 63 63 62 60 58 56 56 59 61 62 60 60 60 56 50 46 45 43 41 39 35 33 32 31 31 32 30 24 17 11 9 11 12 10 7 4 3 4 6 9 11 12
58 61 64 64 63 62 59 57 59 62 62 59 57 53 48 44 42 41 39 36 33 30 27 26 27 28 28 25 20 16 13 11 11 10 10 9 8 7 8 11 14 16 16
55 58 62 64 64 63 61 59 60 63 62 59 55 48 41 40 40 39 36 31 26 22 19 18 20 22 21 16 12 10 10 10 9 9 10 11 10 10 11 13 15 17 18

GEFSMW_con_probscp_270.txt.gz
Probability
3 3 5 8 9 10 11 10 8 9 10 8 5 3 2 3 2 1 0 0 0 0 0 0 0 0 0 0 0 0 0 0 0 0 0 0 0 0 0 0 0 0 0
4 5 7 10 12 12 11 10 9 8 7 6 4 3 3 2 2 1 0 0 0 0 0 0 0 0 0 0 0 0 0 0 0 0 0 0 0 0 0 0 0 0 0
6 8 11 14 16 16 13 10 9 7 5 4 3 3 3 3 2 1 0 1 1 1 0 0 0 1 1 0 0 0 0 0 0 0 0 0 0 1 1 0 0 0 0
9 11 14 17 20 19 14 11 10 8 5 4 4 4 3 3 2 1 1 2 2 1 0 0 1 2 2 1 0 0 0 1 1 1 0 0 1 2 2 1 0 0 0
12 15 16 18 19 18 13 11 12 11 8 7 6 5 4 3 1 1 2 3 2 0 0 0 1 2 3 2 1 1 1 2 2 2 1 1 2 2 2 1 0 0 0
15 17 18 17 17 17 15 14 14 13 10 9 8 6 4 3 1 2 3 4 2 1 1 1 1 2 3 3 3 2 2 3 3 3 3 4 4 2 1 0 0 0 0
14 17 19 18 17 18 19 18 17 15 13 11 10 7 5 3 2 3 4 5 4 3 2 2 2 2 2 2 3 3 3 3 3 3 4 5 5 3 1 0 0 0 0
12 15 18 18 18 19 20 20 19 18 16 14 10 7 5 3 2 2 4 5 5 4 3 3 3 3 2 1 1 3 3 3 3 3 3 4 5 3 1 0 1 1 0
12 14 16 18 19 19 21 22 22 20 19 16 11 7 5 3 2 3 4 5 5 5 4 4 3 3 2 1 1 2 3 3 3 3 3 3 4 3 1 1 2 2 1
13 14 15 17 18 19 22 23 22 20 19 16 12 10 7 5 4 5 7 6 7 8 7 6 4 3 3 1 1 2 3 3 3 3 3 3 4 3 1 1 3 3 4
13 14 16 16 16 18 20 21 21 21 20 18 15 14 12 10 8 9 11 11 11 11 10 9 6 5 4 2 1 1 1 2 3 3 4 4 5 4 2 2 5 7 7
13 14 16 18 17 17 18 21 23 23 23 21 19 17 16 15 14 13 14 15 15 14 12 11 9 7 5 4 3 2 1 1 2 3 4 6 7 7 5 5 9 10 10
14 13 17 21 20 19 19 22 26 27 26 24 21 18 17 18 18 18 18 17 17 16 15 13 12 10 7 4 3 2 1 0 1 2 3 6 9 9 8 9 11 12 12
17 16 18 22 22 20 19 23 29 31 29 27 23 20 18 18 19 20 20 18 18 18 16 15 14 12 10 7 5 4 2 2 1 1 2 5 9 11 11 11 13 14 13
24 23 23 25 25 23 21 24 31 34 32 29 24 20 18 17 18 19 18 17 19 19 17 16 16 15 12 10 8 6 5 4 3 1 1 3 7 11 12 13 14 14 13
32 32 32 33 32 30 26 27 31 34 34 30 24 18 17 18 17 16 15 16 18 18 18 18 17 16 13 12 10 9 7 5 4 3 2 3 5 9 12 12 12 11 12
37 37 37 38 36 33 31 29 30 31 32 30 25 20 19 19 18 15 14 16 18 18 18 18 18 17 16 13 11 10 9 7 5 4 4 5 7 9 9 9 8 9 10
36 36 37 36 33 32 31 30 28 26 27 27 26 25 23 22 21 18 18 19 19 18 17 17 17 17 17 14 11 10 11 9 7 5 6 8 11 11 9 9 8 9 10
29 30 32 33 31 30 31 30 26 23 22 24 26 28 27 26 27 25 22 20 18 16 15 14 15 15 15 14 11 10 12 12 10 8 9 11 13 12 10 10 10 10 11
22 24 27 30 29 28 30 30 26 22 20 22 25 27 27 27 29 28 24 20 18 16 14 13 13 14 15 14 11 11 14 16 14 13 13 13 13 10 8 8 9 10 10
20 21 24 26 26 28 30 30 27 24 22 24 25 24 23 23 24 26 25 22 20 18 16 13 13 14 15 14 11 11 15 18 19 18 17 15 12 8 5 5 6 7 7
20 21 22 23 26 29 32 31 29 27 27 29 27 23 20 19 19 21 23 23 22 20 17 15 13 14 15 14 12 10 12 15 18 20 18 15 10 7 3 2 2 3 3
20 21 23 25 25 27 31 32 31 32 32 31 27 22 20 18 16 17 19 21 21 20 18 15 13 14 15 15 13 11 9 9 12 15 15 12 9 7 4 1 0 0 1
23 24 26 26 24 25 28 31 33 35 35 31 26 23 21 19 16 14 15 16 18 19 19 17 16 17 18 18 16 12 9 7 7 9 10 8 7 7 5 2 1 1 1
28 29 30 28 27 28 30 32 34 36 35 31 26 23 23 21 18 15 14 14 14 15 16 16 18 20 20 19 15 11 9 7 6 7 8 7 7 7 6 5 3 3 3
32 34 33 32 32 32 33 34 35 35 34 30 26 24 23 23 20 18 16 12 10 11 11 13 16 19 19 17 12 8 7 7 7 7 8 8 7 6 7 7 6 5 5

GEFSMW_con_probscp_276.txt.gz
Probability
0 0 0 1 3 2 1 0 0 1 2 3 3 3 2 1 1 2 2 1 0 1 0 0 0 0 0 0 0 0 0 0 0 0 0 0 0 0 0 0 0 0 0
0 0 1 2 3 3 2 1 0 0 1 2 2 2 1 1 2 3 2 1 1 1 0 0 0 0 0 0 0 0 0 0 0 0 0 0 0 0 0 0 0 0 0
1 2 3 3 3 4 4 2 1 0 0 1 1 1 1 2 3 3 3 2 2 1 0 0 0 0 0 0 0 0 0 0 0 0 0 0 0 0 0 0 0 0 0
2 4 5 3 2 3 3 2 1 1 1 1 2 2 3 3 3 3 3 2 2 2 0 0 0 0 0 0 0 0 0 0 0 0 1 1 0 1 1 1 1 1 1
3 4 4 2 1 3 3 3 2 1 1 2 3 3 3 3 3 3 2 2 2 1 0 0 0 0 0 0 0 1 1 1 1 1 2 2 2 2 2 2 2 2 2
4 3 2 1 1 3 5 4 3 1 0 1 2 2 2 2 2 1 1 2 1 0 0 0 0 0 0 0 1 2 2 2 2 2 2 3 3 3 3 3 3 2 2
4 2 0 1 2 4 6 6 4 2 1 0 1 1 1 1 1 0 0 0 0 0 0 0 0 0 0 0 1 2 2 2 2 1 1 2 3 3 3 3 3 2 2
2 1 1 3 5 5 7 8 6 4 3 1 0 0 0 0 0 0 0 0 0 0 1 2 2 1 0 0 1 1 1 1 1 0 0 1 1 2 3 3 3 3 3
1 1 3 5 7 7 7 9 8 6 5 3 1 1 1 0 0 0 0 1 1 1 3 4 3 1 0 0 0 0 0 0 0 0 0 0 0 1 3 4 4 5 6
1 2 4 7 9 9 9 10 9 8 6 5 3 3 2 1 0 0 1 2 2 3 4 5 4 2 1 0 0 0 0 0 0 0 0 0 1 2 4 5 6 8 9
1 2 4 7 9 10 9 8 7 7 8 7 6 5 3 1 0 0 1 3 3 3 3 4 4 3 1 1 0 0 0 0 0 0 0 0 1 2 4 6 8 9 11
1 2 4 6 9 10 8 6 5 7 9 9 8 8 6 3 1 1 2 3 3 3 4 3 3 3 3 2 1 1 1 1 0 0 0 0 1 2 4 6 8 10 10
1 3 4 7 10 10 9 7 5 7 8 8 9 10 8 5 2 2 3 4 4 5 5 4 3 3 3 3 3 3 3 2 1 1 1 1 2 3 4 6 9 10 9
3 4 5 7 9 9 8 7 6 7 9 9 10 11 9 7 5 4 4 4 5 6 6 4 3 3 3 3 4 6 5 4 3 3 3 3 4 4 5 8 10 11 11
5 5 5 6 7 6 5 5 5 8 11 12 12 11 9 8 7 6 4 4 4 5 6 5 4 4 2 2 5 8 8 7 6 6 6 6 6 7 6 8 10 12 13
8 6 6 6 6 4 3 3 5 8 12 13 12 9 8 8 8 6 5 4 4 5 6 7 7 7 5 2 3 7 8 8 9 9 9 8 8 8 7 7 8 10 11
10 8 7 8 8 6 4 5 7 9 12 13 11 9 8 9 9 7 6 6 6 7 8 9 9 9 7 3 1 4 6 8 9 10 10 10 10 10 10 9 8 9 8
10 10 9 10 11 8 7 8 11 13 14 14 12 10 9 10 10 8 7 8 8 9 9 10 10 9 6 3 2 3 5 7 9 10 12 13 13 12 11 11 11 10 10
11 10 10 11 12 11 10 12 15 16 16 15 13 11 10 10 10 9 8 9 10 10 10 10 10 9 7 5 4 4 6 8 10 11 12 14 14 12 11 13 15 14 12
10 10 9 10 11 11 12 13 15 16 17 16 14 11 9 10 9 9 8 9 10 10 10 10 10 10 9 8 7 7 8 10 12 12 13 13 13 10 8 11 16 16 14
9 10 10 10 10 11 13 14 15 16 18 18 15 11 10 9 9 8 8 9 9 9 9 10 11 11 11 10 9 7 8 10 12 13 13 14 11 6 3 6 11 12 11
10 11 12 12 12 13 14 16 16 16 18 18 15 12 11 10 9 8 8 9 8 8 8 9 10 11 12 11 10 7 6 8 10 12 14 13 10 5 2 2 5 5 5
12 13 14 15 16 16 16 16 15 16 17 16 14 12 11 9 9 9 9 9 9 9 9 9 9 11 12 12 11 9 6 5 7 11 12 10 7 5 3 3 3 4 5
13 14 16 18 19 17 15 14 16 17 17 15 13 12 10 8 8 9 10 9 10 10 11 11 10 10 11 12 12 12 9 7 7 9 10 7 6 7 8 7 6 7 8
12 14 17 19 18 15 13 15 18 20 20 16 13 11 9 8 8 8 9 8 8 9 10 10 10 10 9 10 11 11 11 9 8 9 9 9 9 11 13 12 10 8 8
11 13 18 20 18 14 12 16 20 22 23 20 15 12 9 8 7 8 8 6 6 8 7 8 9 9 8 8 9 9 9 9 8 8 10 11 12 13 15 14 11 8 6